START_TIME,STEP,MOV.,P11,t_acc.,P23,t_acc.,P27,t_acc.,A4,t_acc.
1979-08-07 21:00:21.570 ,0,0,2.,4.8,0.,4.8,0.,4.8,0.,4.8
1979-08-07 21:00:26.370 ,0,0,0.,4.8,0.,4.8,0.,4.8,0.,4.8
1979-08-07 21:00:31.170 ,0,0,0.,4.8,0.,4.8,0.,4.8,0.,4.8
1979-08-07 21:00:35.970 ,0,0,2.,4.8,0.,4.8,1.,4.8,0.,4.8
1979-08-07 21:00:40.770 ,0,0,0.,4.8,0.,4.8,0.,4.8,0.,4.8
1979-08-07 21:00:45.560 ,0,0,3.,4.8,0.,4.8,0.,4.8,0.,4.8
1979-08-07 21:00:50.370 ,0,0,2.,4.8,0.,4.8,0.,4.8,0.,4.8
1979-08-07 21:00:55.170 ,0,0,1.,4.8,0.,4.8,0.,4.8,0.,4.8
1979-08-07 21:00:59.970 ,0,0,2.,4.8,0.,4.8,1.,4.8,0.,4.8
1979-08-07 21:01:04.770 ,0,0,1.,4.8,0.,4.8,0.,4.8,0.,4.8
1979-08-07 21:01:09.560 ,0,0,0.,4.8,0.,4.8,1.,4.8,0.,4.8
1979-08-07 21:01:14.360 ,0,0,0.,4.8,0.,4.8,0.,4.8,0.,4.8
1979-08-07 21:01:19.170 ,0,0,1.,4.8,1.,4.8,0.,4.8,0.,4.8
1979-08-07 21:01:23.970 ,0,0,2.,4.8,1.,4.8,1.,4.8,0.,4.8
1979-08-07 21:01:28.770 ,0,0,3.,4.8,0.,4.8,0.,4.8,0.,4.8
1979-08-07 21:01:33.560 ,1,0,5.,4.8,0.,4.8,0.,4.8,0.,4.8
1979-08-07 21:01:38.360 ,1,0,0.,4.8,0.,4.8,1.,4.8,0.,4.8
1979-08-07 21:01:43.170 ,1,0,5.,4.8,0.,4.8,0.,4.8,0.,4.8
1979-08-07 21:01:47.970 ,1,0,1.,4.8,0.,4.8,1.,4.8,0.,4.8
1979-08-07 21:01:52.770 ,1,0,1.,4.8,0.,4.8,1.,4.8,0.,4.8
1979-08-07 21:01:57.560 ,1,0,0.,4.8,1.,4.8,0.,4.8,0.,4.8
1979-08-07 21:02:02.360 ,1,0,1.,4.8,0.,4.8,1.,4.8,0.,4.8
1979-08-07 21:02:07.170 ,1,0,2.,4.8,0.,4.8,1.,4.8,0.,4.8
1979-08-07 21:02:11.970 ,1,0,1.,4.8,0.,4.8,0.,4.8,0.,4.8
1979-08-07 21:02:16.770 ,1,0,1.,4.8,0.,4.8,0.,4.8,0.,4.8
1979-08-07 21:02:21.570 ,2,0,4.,4.8,0.,4.8,0.,4.8,0.,4.8
1979-08-07 21:02:26.370 ,2,0,1.,4.8,0.,4.8,0.,4.8,0.,4.8
1979-08-07 21:02:31.170 ,2,0,2.,4.8,0.,4.8,2.,4.8,0.,4.8
1979-08-07 21:02:35.960 ,2,0,3.,4.8,0.,4.8,0.,4.8,0.,4.8
1979-08-07 21:02:40.760 ,2,0,2.,4.8,0.,4.8,1.,4.8,0.,4.8
1979-08-07 21:02:45.560 ,2,0,2.,4.8,0.,4.8,0.,4.8,0.,4.8
1979-08-07 21:02:50.360 ,2,0,3.,4.8,0.,4.8,1.,4.8,0.,4.8
1979-08-07 21:02:55.160 ,2,0,1.,4.8,1.,4.8,0.,4.8,0.,4.8
1979-08-07 21:02:59.960 ,2,0,0.,4.8,0.,4.8,1.,4.8,0.,4.8
1979-08-07 21:03:04.770 ,2,0,1.,4.8,0.,4.8,2.,4.8,0.,4.8
1979-08-07 21:03:09.570 ,3,0,2.,4.8,1.,4.8,0.,4.8,0.,4.8
1979-08-07 21:03:14.370 ,3,0,2.,4.8,0.,4.8,0.,4.8,0.,4.8
1979-08-07 21:03:19.170 ,3,0,0.,4.8,0.,4.8,0.,4.8,0.,4.8
1979-08-07 21:03:23.960 ,3,0,0.,4.8,0.,4.8,0.,4.8,0.,4.8
1979-08-07 21:03:28.760 ,3,0,2.,4.8,0.,4.8,0.,4.8,0.,4.8
1979-08-07 21:03:33.560 ,3,0,0.,4.8,1.,4.8,0.,4.8,0.,4.8
1979-08-07 21:03:38.360 ,3,0,2.,4.8,0.,4.8,0.,4.8,0.,4.8
1979-08-07 21:03:43.160 ,3,0,1.,4.8,0.,4.8,0.,4.8,0.,4.8
1979-08-07 21:03:47.960 ,3,0,1.,4.8,0.,4.8,0.,4.8,0.,4.8
1979-08-07 21:03:52.760 ,3,0,1.,4.8,0.,4.8,1.,4.8,0.,4.8
1979-08-07 21:03:57.560 ,4,0,3.,4.8,0.,4.8,1.,4.8,0.,4.8
1979-08-07 21:04:02.360 ,4,0,0.,4.8,0.,4.8,0.,4.8,0.,4.8
1979-08-07 21:04:07.170 ,4,0,0.,4.8,0.,4.8,0.,4.8,0.,4.8
1979-08-07 21:04:11.970 ,4,0,1.,4.8,0.,4.8,0.,4.8,0.,4.8
1979-08-07 21:04:16.770 ,4,0,0.,4.8,1.,4.8,1.,4.8,0.,4.8
1979-08-07 21:04:21.570 ,4,0,1.,4.8,1.,4.8,1.,4.8,0.,4.8
1979-08-07 21:04:26.360 ,4,0,0.,4.8,1.,4.8,0.,4.8,0.,4.8
1979-08-07 21:04:31.170 ,4,0,0.,4.8,0.,4.8,0.,4.8,0.,4.8
1979-08-07 21:04:35.960 ,4,0,2.,4.8,0.,4.8,0.,4.8,0.,4.8
1979-08-07 21:04:40.770 ,4,0,1.,4.8,0.,4.8,0.,4.8,0.,4.8
1979-08-07 21:04:45.570 ,5,0,2.,4.8,0.,4.8,0.,4.8,0.,4.8
1979-08-07 21:04:50.360 ,5,0,4.,4.8,0.,4.8,0.,4.8,0.,4.8
1979-08-07 21:04:55.170 ,5,0,0.,4.8,1.,4.8,0.,4.8,0.,4.8
1979-08-07 21:04:59.960 ,5,0,0.,4.8,1.,4.8,0.,4.8,0.,4.8
1979-08-07 21:05:04.770 ,5,0,0.,4.8,0.,4.8,1.,4.8,0.,4.8
1979-08-07 21:05:09.570 ,5,0,0.,4.8,0.,4.8,1.,4.8,1.,4.8
1979-08-07 21:05:14.360 ,5,0,2.,4.8,1.,4.8,0.,4.8,0.,4.8
1979-08-07 21:05:19.170 ,5,0,0.,4.8,1.,4.8,1.,4.8,0.,4.8
1979-08-07 21:05:23.960 ,5,0,0.,4.8,0.,4.8,2.,4.8,0.,4.8
1979-08-07 21:05:28.770 ,5,0,1.,4.8,0.,4.8,2.,4.8,0.,4.8
1979-08-07 21:05:33.570 ,6,0,1.,4.8,0.,4.8,0.,4.8,0.,4.8
1979-08-07 21:05:38.360 ,6,0,1.,4.8,0.,4.8,1.,4.8,0.,4.8
1979-08-07 21:05:43.170 ,6,0,1.,4.8,2.,4.8,3.,4.8,0.,4.8
1979-08-07 21:05:47.960 ,6,0,1.,4.8,0.,4.8,0.,4.8,0.,4.8
1979-08-07 21:05:52.770 ,6,0,1.,4.8,1.,4.8,0.,4.8,0.,4.8
1979-08-07 21:05:57.570 ,6,0,0.,4.8,0.,4.8,1.,4.8,0.,4.8
1979-08-07 21:06:02.360 ,6,0,1.,4.8,0.,4.8,0.,4.8,0.,4.8
1979-08-07 21:06:07.170 ,6,0,1.,4.8,0.,4.8,1.,4.8,0.,4.8
1979-08-07 21:06:11.960 ,6,0,0.,4.8,1.,4.8,0.,4.8,0.,4.8
1979-08-07 21:06:16.770 ,6,0,1.,4.8,0.,4.8,0.,4.8,0.,4.8
1979-08-07 21:06:21.570 ,7,0,1.,4.8,1.,4.8,1.,4.8,0.,4.8
1979-08-07 21:06:26.360 ,7,0,1.,4.8,0.,4.8,1.,4.8,0.,4.8
1979-08-07 21:06:31.170 ,7,0,0.,4.8,0.,4.8,0.,4.8,0.,4.8
1979-08-07 21:06:35.960 ,7,0,0.,4.8,1.,4.8,0.,4.8,0.,4.8
1979-08-07 21:06:40.770 ,7,0,0.,4.8,0.,4.8,0.,4.8,0.,4.8
1979-08-07 21:06:45.570 ,0,0,1.,4.8,0.,4.8,1.,4.8,0.,4.8
1979-08-07 21:06:50.360 ,0,0,0.,4.8,0.,4.8,0.,4.8,0.,4.8
1979-08-07 21:06:55.170 ,0,0,0.,4.8,0.,4.8,0.,4.8,0.,4.8
1979-08-07 21:06:59.960 ,0,0,,0,,0,,0,,0
1979-08-07 21:07:04.770 ,0,0,,0,,0,,0,,0
1979-08-07 21:16:16.760 ,0,0,,0,,0,,0,,0
1979-08-07 21:16:21.570 ,0,0,,0,,0,,0,,0
1979-08-07 21:16:26.360 ,0,0,,0,,0,,0,,0
1979-08-07 21:16:31.160 ,0,0,,0,,0,,0,,0
1979-08-07 21:16:35.960 ,0,0,0.,4.8,0.,4.8,1.,4.8,0.,4.8
1979-08-07 21:16:21.570 ,7,1,0.,4.8,0.,4.8,2.,4.8,0.,4.8
1979-08-07 21:16:26.370 ,7,1,0.,4.8,1.,4.8,0.,4.8,0.,4.8
1979-08-07 21:16:31.170 ,7,1,0.,4.8,2.,4.8,0.,4.8,0.,4.8
1979-08-07 21:16:35.970 ,7,1,0.,4.8,1.,4.8,1.,4.8,0.,4.8
1979-08-07 21:16:40.770 ,7,1,2.,4.8,0.,4.8,2.,4.8,0.,4.8
1979-08-07 21:16:45.570 ,3,1,0.,4.8,0.,4.8,0.,4.8,0.,4.8
1979-08-07 21:16:50.370 ,3,1,2.,4.8,0.,4.8,0.,4.8,0.,4.8
1979-08-07 21:16:55.170 ,3,1,0.,4.8,1.,4.8,1.,4.8,0.,4.8
1979-08-07 21:16:59.970 ,3,1,0.,4.8,0.,4.8,0.,4.8,0.,4.8
1979-08-07 21:17:04.770 ,3,1,6.,4.8,0.,4.8,1.,4.8,0.,4.8
1979-08-07 21:17:09.560 ,0,1,2.,4.8,0.,4.8,0.,4.8,0.,4.8
1979-08-07 21:17:14.360 ,0,1,2.,4.8,0.,4.8,2.,4.8,0.,4.8
1979-08-07 21:17:19.160 ,0,1,1.,4.8,0.,4.8,0.,4.8,0.,4.8
1979-08-07 21:17:23.960 ,0,1,1.,4.8,0.,4.8,0.,4.8,0.,4.8
1979-08-07 21:17:28.770 ,0,1,2.,4.8,1.,4.8,0.,4.8,0.,4.8
1979-08-07 21:17:33.560 ,0,0,1.,4.8,0.,4.8,0.,4.8,0.,4.8
1979-08-07 21:17:38.360 ,0,0,2.,4.8,1.,4.8,0.,4.8,0.,4.8
1979-08-07 21:17:43.160 ,0,0,2.,4.8,1.,4.8,2.,4.8,0.,4.8
1979-08-07 21:17:47.960 ,0,0,0.,4.8,0.,4.8,0.,4.8,0.,4.8
1979-08-07 21:17:52.770 ,0,0,1.,4.8,1.,4.8,0.,4.8,0.,4.8
1979-08-07 21:17:57.560 ,0,0,1.,4.8,0.,4.8,0.,4.8,0.,4.8
1979-08-07 21:18:02.360 ,0,0,0.,4.8,1.,4.8,1.,4.8,0.,4.8
1979-08-07 21:18:07.160 ,0,0,0.,4.8,1.,4.8,0.,4.8,0.,4.8
1979-08-07 21:18:11.960 ,0,0,0.,4.8,1.,4.8,0.,4.8,0.,4.8
1979-08-07 21:18:16.770 ,0,0,1.,4.8,0.,4.8,1.,4.8,0.,4.8
1979-08-07 21:18:21.560 ,5,0,2.,4.8,0.,4.8,0.,4.8,0.,4.8
1979-08-07 21:18:26.360 ,5,0,3.,4.8,0.,4.8,0.,4.8,0.,4.8
1979-08-07 21:18:31.160 ,5,0,2.,4.8,0.,4.8,0.,4.8,0.,4.8
1979-08-07 21:18:35.960 ,5,0,0.,4.8,0.,4.8,0.,4.8,0.,4.8
1979-08-07 21:18:40.760 ,5,0,0.,4.8,0.,4.8,1.,4.8,0.,4.8
1979-08-07 21:18:45.560 ,5,0,1.,4.8,0.,4.8,0.,4.8,0.,4.8
1979-08-07 21:18:50.360 ,5,0,1.,4.8,0.,4.8,0.,4.8,0.,4.8
1979-08-07 21:18:55.160 ,5,0,1.,4.8,0.,4.8,0.,4.8,0.,4.8
1979-08-07 21:18:59.960 ,5,0,2.,4.8,1.,4.8,0.,4.8,0.,4.8
1979-08-07 21:19:04.760 ,5,0,4.,4.8,0.,4.8,0.,4.8,0.,4.8
1979-08-07 21:19:09.560 ,4,0,1.,4.8,0.,4.8,2.,4.8,0.,4.8
1979-08-07 21:19:14.360 ,4,0,0.,4.8,0.,4.8,3.,4.8,0.,4.8
1979-08-07 21:19:19.160 ,4,0,2.,4.8,0.,4.8,0.,4.8,0.,4.8
1979-08-07 21:19:23.960 ,4,0,2.,4.8,0.,4.8,0.,4.8,0.,4.8
1979-08-07 21:19:28.760 ,4,0,1.,4.8,0.,4.8,0.,4.8,0.,4.8
1979-08-07 21:19:33.560 ,4,0,0.,4.8,0.,4.8,0.,4.8,0.,4.8
1979-08-07 21:19:38.360 ,4,0,1.,4.8,1.,4.8,0.,4.8,0.,4.8
1979-08-07 21:19:43.160 ,4,0,1.,4.8,0.,4.8,0.,4.8,0.,4.8
1979-08-07 21:19:47.960 ,4,0,2.,4.8,0.,4.8,0.,4.8,0.,4.8
1979-08-07 21:19:52.760 ,4,0,1.,4.8,0.,4.8,0.,4.8,0.,4.8
1979-08-07 21:19:57.560 ,3,0,2.,4.8,0.,4.8,0.,4.8,0.,4.8
1979-08-07 21:20:02.360 ,3,0,3.,4.8,0.,4.8,0.,4.8,0.,4.8
1979-08-07 21:20:07.160 ,3,0,1.,4.8,0.,4.8,0.,4.8,0.,4.8
1979-08-07 21:20:11.960 ,3,0,1.,4.8,0.,4.8,0.,4.8,0.,4.8
1979-08-07 21:20:16.760 ,3,0,1.,4.8,0.,4.8,0.,4.8,0.,4.8
1979-08-07 21:20:21.560 ,3,0,1.,4.8,0.,4.8,0.,4.8,0.,4.8
1979-08-07 21:20:26.360 ,3,0,2.,4.8,1.,4.8,0.,4.8,0.,4.8
1979-08-07 21:20:31.160 ,3,0,3.,4.8,1.,4.8,0.,4.8,0.,4.8
1979-08-07 21:20:35.960 ,3,0,1.,4.8,0.,4.8,0.,4.8,0.,4.8
1979-08-07 21:20:40.760 ,3,0,1.,4.8,0.,4.8,2.,4.8,0.,4.8
1979-08-07 21:20:45.560 ,2,0,1.,4.8,0.,4.8,0.,4.8,0.,4.8
1979-08-07 21:20:50.360 ,2,0,1.,4.8,0.,4.8,0.,4.8,0.,4.8
1979-08-07 21:20:55.160 ,2,0,0.,4.8,0.,4.8,1.,4.8,0.,4.8
1979-08-07 21:20:59.960 ,2,0,1.,4.8,0.,4.8,1.,4.8,0.,4.8
1979-08-07 21:21:04.760 ,2,0,0.,4.8,0.,4.8,1.,4.8,0.,4.8
1979-08-07 21:21:09.560 ,2,0,1.,4.8,0.,4.8,0.,4.8,0.,4.8
1979-08-07 21:21:14.360 ,2,0,0.,4.8,0.,4.8,0.,4.8,0.,4.8
1979-08-07 21:21:19.160 ,2,0,0.,4.8,0.,4.8,0.,4.8,0.,4.8
1979-08-07 21:21:23.960 ,2,0,3.,4.8,0.,4.8,1.,4.8,0.,4.8
1979-08-07 21:21:28.760 ,2,0,0.,4.8,1.,4.8,0.,4.8,0.,4.8
1979-08-07 21:21:33.560 ,1,0,1.,4.8,0.,4.8,0.,4.8,0.,4.8
1979-08-07 21:21:38.360 ,1,0,3.,4.8,0.,4.8,1.,4.8,0.,4.8
1979-08-07 21:21:43.160 ,1,0,0.,4.8,0.,4.8,1.,4.8,0.,4.8
1979-08-07 21:21:47.960 ,1,0,2.,4.8,0.,4.8,1.,4.8,0.,4.8
1979-08-07 21:21:52.760 ,1,0,0.,4.8,1.,4.8,0.,4.8,0.,4.8
1979-08-07 21:21:57.560 ,1,0,3.,4.8,0.,4.8,0.,4.8,0.,4.8
1979-08-07 21:22:02.360 ,1,0,0.,4.8,0.,4.8,0.,4.8,0.,4.8
1979-08-07 21:22:07.160 ,1,0,1.,4.8,0.,4.8,0.,4.8,0.,4.8
1979-08-07 21:22:11.960 ,1,0,2.,4.8,0.,4.8,1.,4.8,0.,4.8
1979-08-07 21:22:16.760 ,1,0,0.,4.8,0.,4.8,0.,4.8,0.,4.8
1979-08-07 21:22:21.560 ,0,0,2.,4.8,0.,4.8,1.,4.8,0.,4.8
1979-08-07 21:22:26.360 ,0,0,0.,4.8,0.,4.8,0.,4.8,0.,4.8
1979-08-07 21:22:31.160 ,0,0,2.,4.8,0.,4.8,0.,4.8,0.,4.8
1979-08-07 21:22:35.960 ,0,0,3.,4.8,1.,4.8,0.,4.8,0.,4.8
1979-08-07 21:22:40.760 ,0,0,1.,4.8,0.,4.8,0.,4.8,0.,4.8
1979-08-07 21:22:45.560 ,0,0,0.,4.8,0.,4.8,1.,4.8,0.,4.8
1979-08-07 21:22:50.360 ,0,0,1.,4.8,0.,4.8,0.,4.8,0.,4.8
1979-08-07 21:22:55.160 ,0,0,0.,4.8,0.,4.8,0.,4.8,0.,4.8
1979-08-07 21:22:59.960 ,0,0,1.,4.8,0.,4.8,0.,4.8,0.,4.8
1979-08-07 21:23:04.760 ,0,0,2.,4.8,0.,4.8,0.,4.8,0.,4.8
1979-08-07 21:23:09.560 ,0,0,2.,4.8,2.,4.8,1.,4.8,0.,4.8
1979-08-07 21:23:14.360 ,0,0,0.,4.8,0.,4.8,1.,4.8,0.,4.8
1979-08-07 21:23:19.160 ,0,0,1.,4.8,0.,4.8,0.,4.8,0.,4.8
1979-08-07 21:23:23.960 ,0,0,0.,4.8,0.,4.8,0.,4.8,0.,4.8
1979-08-07 21:23:28.760 ,0,0,0.,4.8,1.,4.8,0.,4.8,0.,4.8
1979-08-07 21:23:33.560 ,0,0,0.,4.8,0.,4.8,2.,4.8,0.,4.8
1979-08-07 21:23:38.360 ,0,0,0.,4.8,0.,4.8,1.,4.8,0.,4.8
1979-08-07 21:23:43.160 ,0,0,0.,4.8,1.,4.8,1.,4.8,0.,4.8
1979-08-07 21:23:47.960 ,0,0,3.,4.8,1.,4.8,0.,4.8,0.,4.8
1979-08-07 21:23:52.760 ,0,0,1.,4.8,0.,4.8,0.,4.8,0.,4.8
1979-08-07 21:23:57.560 ,1,0,3.,4.8,0.,4.8,0.,4.8,0.,4.8
1979-08-07 21:24:02.360 ,1,0,0.,4.8,0.,4.8,0.,4.8,0.,4.8
1979-08-07 21:24:07.160 ,1,0,1.,4.8,0.,4.8,1.,4.8,0.,4.8
1979-08-07 21:24:11.960 ,1,0,1.,4.8,0.,4.8,0.,4.8,0.,4.8
1979-08-07 21:24:16.760 ,1,0,1.,4.8,0.,4.8,1.,4.8,0.,4.8
1979-08-07 21:24:21.560 ,1,0,1.,4.8,0.,4.8,1.,4.8,0.,4.8
1979-08-07 21:24:26.360 ,1,0,3.,4.8,0.,4.8,0.,4.8,0.,4.8
1979-08-07 21:24:31.160 ,1,0,2.,4.8,0.,4.8,0.,4.8,1.,4.8
1979-08-07 21:24:35.960 ,1,0,0.,4.8,0.,4.8,1.,4.8,0.,4.8
1979-08-07 21:24:40.760 ,1,0,0.,4.8,1.,4.8,0.,4.8,0.,4.8
1979-08-07 21:24:45.560 ,2,0,2.,4.8,1.,4.8,1.,4.8,0.,4.8
1979-08-07 21:24:50.360 ,2,0,1.,4.8,0.,4.8,0.,4.8,0.,4.8
1979-08-07 21:24:55.160 ,2,0,2.,4.8,0.,4.8,0.,4.8,0.,4.8
1979-08-07 21:24:59.960 ,2,0,1.,4.8,1.,4.8,0.,4.8,0.,4.8
1979-08-07 21:25:04.760 ,2,0,0.,4.8,0.,4.8,1.,4.8,0.,4.8
1979-08-07 21:25:09.560 ,2,0,2.,4.8,0.,4.8,0.,4.8,0.,4.8
1979-08-07 21:25:14.360 ,2,0,0.,4.8,0.,4.8,0.,4.8,0.,4.8
1979-08-07 21:25:19.160 ,2,0,2.,4.8,0.,4.8,0.,4.8,0.,4.8
1979-08-07 21:25:23.960 ,2,0,0.,4.8,0.,4.8,1.,4.8,0.,4.8
1979-08-07 21:25:28.760 ,2,0,3.,4.8,0.,4.8,0.,4.8,0.,4.8
1979-08-07 21:25:33.560 ,3,0,2.,4.8,0.,4.8,1.,4.8,0.,4.8
1979-08-07 21:25:38.360 ,3,0,1.,4.8,0.,4.8,0.,4.8,0.,4.8
1979-08-07 21:25:43.160 ,3,0,3.,4.8,0.,4.8,0.,4.8,0.,4.8
1979-08-07 21:25:47.960 ,3,0,0.,4.8,0.,4.8,0.,4.8,0.,4.8
1979-08-07 21:25:52.760 ,3,0,2.,4.8,0.,4.8,0.,4.8,0.,4.8
1979-08-07 21:25:57.560 ,3,0,1.,4.8,0.,4.8,0.,4.8,0.,4.8
1979-08-07 21:26:02.360 ,3,0,1.,4.8,0.,4.8,0.,4.8,0.,4.8
1979-08-07 21:26:07.160 ,3,0,5.,4.8,2.,4.8,0.,4.8,0.,4.8
1979-08-07 21:26:11.960 ,3,0,2.,4.8,0.,4.8,0.,4.8,0.,4.8
1979-08-07 21:26:16.760 ,3,0,2.,4.8,0.,4.8,1.,4.8,0.,4.8
1979-08-07 21:26:21.560 ,4,0,1.,4.8,0.,4.8,1.,4.8,0.,4.8
1979-08-07 21:26:26.360 ,4,0,3.,4.8,0.,4.8,0.,4.8,0.,4.8
1979-08-07 21:26:31.160 ,4,0,0.,4.8,0.,4.8,0.,4.8,0.,4.8
1979-08-07 21:26:35.960 ,4,0,3.,4.8,0.,4.8,1.,4.8,0.,4.8
1979-08-07 21:26:40.760 ,4,0,0.,4.8,0.,4.8,0.,4.8,0.,4.8
1979-08-07 21:26:45.560 ,4,0,0.,4.8,0.,4.8,1.,4.8,0.,4.8
1979-08-07 21:26:50.360 ,4,0,2.,4.8,0.,4.8,4.,4.8,0.,4.8
1979-08-07 21:26:55.160 ,4,0,3.,4.8,0.,4.8,1.,4.8,0.,4.8
1979-08-07 21:26:59.960 ,4,0,0.,4.8,0.,4.8,0.,4.8,0.,4.8
1979-08-07 21:27:04.760 ,4,0,0.,4.8,0.,4.8,0.,4.8,0.,4.8
1979-08-07 21:27:09.560 ,5,0,0.,4.8,0.,4.8,0.,4.8,0.,4.8
1979-08-07 21:27:14.360 ,5,0,1.,4.8,2.,4.8,0.,4.8,0.,4.8
1979-08-07 21:27:19.160 ,5,0,1.,4.8,0.,4.8,0.,4.8,0.,4.8
1979-08-07 21:27:23.960 ,5,0,0.,4.8,0.,4.8,0.,4.8,0.,4.8
1979-08-07 21:27:28.760 ,5,0,1.,4.8,0.,4.8,0.,4.8,0.,4.8
1979-08-07 21:27:33.560 ,5,0,1.,4.8,1.,4.8,0.,4.8,0.,4.8
1979-08-07 21:27:38.360 ,5,0,0.,4.8,0.,4.8,0.,4.8,0.,4.8
1979-08-07 21:27:43.160 ,5,0,1.,4.8,0.,4.8,0.,4.8,0.,4.8
1979-08-07 21:27:47.960 ,5,0,0.,4.8,0.,4.8,0.,4.8,0.,4.8
1979-08-07 21:27:52.760 ,5,0,1.,4.8,0.,4.8,0.,4.8,0.,4.8
1979-08-07 21:27:57.560 ,6,0,0.,4.8,0.,4.8,2.,4.8,0.,4.8
1979-08-07 21:28:02.360 ,6,0,1.,4.8,0.,4.8,0.,4.8,0.,4.8
1979-08-07 21:28:07.160 ,6,0,2.,4.8,0.,4.8,0.,4.8,0.,4.8
1979-08-07 21:28:11.960 ,6,0,2.,4.8,0.,4.8,0.,4.8,0.,4.8
1979-08-07 21:28:16.760 ,6,0,3.,4.8,0.,4.8,0.,4.8,0.,4.8
1979-08-07 21:28:21.560 ,6,0,0.,4.8,1.,4.8,0.,4.8,0.,4.8
1979-08-07 21:28:26.360 ,6,0,1.,4.8,0.,4.8,1.,4.8,0.,4.8
1979-08-07 21:28:31.160 ,6,0,0.,4.8,0.,4.8,0.,4.8,0.,4.8
1979-08-07 21:28:35.960 ,6,0,0.,4.8,1.,4.8,0.,4.8,0.,4.8
1979-08-07 21:28:40.760 ,6,0,2.,4.8,0.,4.8,0.,4.8,0.,4.8
1979-08-07 21:28:45.560 ,7,0,1.,4.8,1.,4.8,0.,4.8,0.,4.8
1979-08-07 21:28:50.360 ,7,0,,0,,0,,0,,0
1979-08-07 21:28:55.160 ,7,0,3.,4.8,0.,4.8,0.,4.8,0.,4.8
1979-08-07 21:28:59.960 ,7,0,1.,4.8,2.,4.8,0.,4.8,0.,4.8
1979-08-07 21:29:04.760 ,7,0,0.,4.8,0.,4.8,1.,4.8,0.,4.8
1979-08-07 21:29:09.560 ,7,0,0.,4.8,0.,4.8,0.,4.8,0.,4.8
1979-08-07 21:29:14.360 ,7,0,1.,4.8,0.,4.8,0.,4.8,0.,4.8
1979-08-07 21:29:19.160 ,7,0,1.,4.8,0.,4.8,0.,4.8,0.,4.8
1979-08-07 21:29:23.960 ,7,0,2.,4.8,0.,4.8,0.,4.8,0.,4.8
1979-08-07 21:29:28.760 ,7,0,0.,4.8,0.,4.8,0.,4.8,0.,4.8
1979-08-07 21:30:21.560 ,0,0,2.,4.8,0.,4.8,0.,4.8,0.,4.8
1979-08-07 21:30:26.360 ,0,0,0.,4.8,0.,4.8,0.,4.8,0.,4.8
1979-08-07 21:30:31.160 ,0,0,0.,4.8,0.,4.8,0.,4.8,0.,4.8
1979-08-07 21:30:35.960 ,0,0,1.,4.8,2.,4.8,0.,4.8,0.,4.8
1979-08-07 21:30:40.760 ,0,0,1.,4.8,0.,4.8,1.,4.8,0.,4.8
1979-08-07 21:30:45.560 ,0,0,1.,4.8,1.,4.8,1.,4.8,0.,4.8
1979-08-07 21:30:50.360 ,0,0,2.,4.8,0.,4.8,1.,4.8,0.,4.8
1979-08-07 21:30:55.160 ,0,0,3.,4.8,1.,4.8,2.,4.8,0.,4.8
1979-08-07 21:30:59.960 ,0,0,1.,4.8,1.,4.8,3.,4.8,0.,4.8
1979-08-07 21:31:04.760 ,0,0,1.,4.8,1.,4.8,0.,4.8,0.,4.8
1979-08-07 21:31:09.560 ,5,0,1.,4.8,1.,4.8,0.,4.8,0.,4.8
1979-08-07 21:31:14.360 ,5,0,2.,4.8,0.,4.8,0.,4.8,0.,4.8
1979-08-07 21:31:19.160 ,5,0,0.,4.8,0.,4.8,0.,4.8,0.,4.8
1979-08-07 21:31:23.960 ,5,0,1.,4.8,0.,4.8,0.,4.8,0.,4.8
1979-08-07 21:31:28.760 ,5,0,0.,4.8,0.,4.8,1.,4.8,0.,4.8
1979-08-07 21:31:33.560 ,5,0,2.,4.8,0.,4.8,0.,4.8,0.,4.8
1979-08-07 21:31:38.360 ,5,0,1.,4.8,0.,4.8,0.,4.8,0.,4.8
1979-08-07 21:31:43.160 ,5,0,1.,4.8,0.,4.8,0.,4.8,0.,4.8
1979-08-07 21:31:47.960 ,5,0,2.,4.8,1.,4.8,0.,4.8,0.,4.8
1979-08-07 21:31:52.760 ,5,0,1.,4.8,0.,4.8,0.,4.8,0.,4.8
1979-08-07 21:31:57.560 ,4,0,0.,4.8,0.,4.8,1.,4.8,0.,4.8
1979-08-07 21:32:02.360 ,4,0,2.,4.8,1.,4.8,0.,4.8,0.,4.8
1979-08-07 21:32:07.160 ,4,0,2.,4.8,1.,4.8,0.,4.8,0.,4.8
1979-08-07 21:32:11.960 ,4,0,2.,4.8,0.,4.8,0.,4.8,0.,4.8
1979-08-07 21:32:16.760 ,4,0,2.,4.8,0.,4.8,0.,4.8,0.,4.8
1979-08-07 21:32:21.560 ,4,0,1.,4.8,1.,4.8,1.,4.8,0.,4.8
1979-08-07 21:32:26.360 ,4,0,3.,4.8,0.,4.8,1.,4.8,0.,4.8
1979-08-07 21:32:31.160 ,4,0,0.,4.8,1.,4.8,1.,4.8,0.,4.8
1979-08-07 21:32:35.960 ,4,0,0.,4.8,1.,4.8,0.,4.8,0.,4.8
1979-08-07 21:32:40.760 ,4,0,0.,4.8,0.,4.8,0.,4.8,0.,4.8
1979-08-07 21:32:45.560 ,3,0,0.,4.8,0.,4.8,2.,4.8,0.,4.8
1979-08-07 21:32:50.360 ,3,0,2.,4.8,0.,4.8,1.,4.8,0.,4.8
1979-08-07 21:32:55.160 ,3,0,1.,4.8,0.,4.8,0.,4.8,0.,4.8
1979-08-07 21:32:59.960 ,3,0,0.,4.8,0.,4.8,0.,4.8,0.,4.8
1979-08-07 21:33:04.760 ,3,0,2.,4.8,0.,4.8,0.,4.8,0.,4.8
1979-08-07 21:33:09.560 ,3,0,0.,4.8,0.,4.8,0.,4.8,0.,4.8
1979-08-07 21:33:14.360 ,3,0,2.,4.8,0.,4.8,1.,4.8,0.,4.8
1979-08-07 21:33:19.160 ,3,0,3.,4.8,0.,4.8,0.,4.8,0.,4.8
1979-08-07 21:33:23.960 ,3,0,0.,4.8,0.,4.8,0.,4.8,0.,4.8
1979-08-07 21:33:28.760 ,3,0,1.,4.8,1.,4.8,0.,4.8,0.,4.8
1979-08-07 21:33:33.560 ,2,0,3.,4.8,0.,4.8,0.,4.8,0.,4.8
1979-08-07 21:33:38.360 ,2,0,3.,4.8,0.,4.8,0.,4.8,0.,4.8
1979-08-07 21:33:43.160 ,2,0,1.,4.8,0.,4.8,0.,4.8,0.,4.8
1979-08-07 21:33:47.960 ,2,0,2.,4.8,0.,4.8,0.,4.8,0.,4.8
1979-08-07 21:33:52.760 ,2,0,1.,4.8,1.,4.8,0.,4.8,0.,4.8
1979-08-07 21:33:57.560 ,2,0,0.,4.8,1.,4.8,0.,4.8,0.,4.8
1979-08-07 21:34:02.360 ,2,0,0.,4.8,0.,4.8,0.,4.8,0.,4.8
1979-08-07 21:34:07.160 ,2,0,1.,4.8,0.,4.8,0.,4.8,0.,4.8
1979-08-07 21:34:11.960 ,2,0,1.,4.8,0.,4.8,0.,4.8,0.,4.8
1979-08-07 21:34:16.760 ,2,0,0.,4.8,1.,4.8,0.,4.8,0.,4.8
1979-08-07 21:34:21.560 ,1,0,2.,4.8,0.,4.8,1.,4.8,0.,4.8
1979-08-07 21:34:26.360 ,1,0,1.,4.8,0.,4.8,1.,4.8,0.,4.8
1979-08-07 21:34:31.160 ,1,0,1.,4.8,1.,4.8,1.,4.8,0.,4.8
1979-08-07 21:34:35.960 ,1,0,2.,4.8,2.,4.8,0.,4.8,0.,4.8
1979-08-07 21:34:40.760 ,1,0,1.,4.8,0.,4.8,0.,4.8,0.,4.8
1979-08-07 21:34:45.560 ,1,0,2.,4.8,1.,4.8,0.,4.8,0.,4.8
1979-08-07 21:34:50.360 ,1,0,0.,4.8,0.,4.8,1.,4.8,0.,4.8
1979-08-07 21:34:55.160 ,1,0,1.,4.8,0.,4.8,1.,4.8,0.,4.8
1979-08-07 21:34:59.960 ,1,0,2.,4.8,0.,4.8,1.,4.8,0.,4.8
1979-08-07 21:35:04.760 ,1,0,1.,4.8,0.,4.8,0.,4.8,0.,4.8
1979-08-07 21:35:09.560 ,0,0,0.,4.8,0.,4.8,0.,4.8,0.,4.8
1979-08-07 21:35:14.360 ,0,0,1.,4.8,2.,4.8,1.,4.8,0.,4.8
1979-08-07 21:35:19.160 ,0,0,2.,4.8,0.,4.8,0.,4.8,0.,4.8
1979-08-07 21:35:23.960 ,0,0,1.,4.8,0.,4.8,1.,4.8,0.,4.8
1979-08-07 21:35:28.760 ,0,0,1.,4.8,1.,4.8,1.,4.8,0.,4.8
1979-08-07 21:35:33.560 ,0,0,3.,4.8,0.,4.8,0.,4.8,0.,4.8
1979-08-07 21:35:38.360 ,0,0,1.,4.8,0.,4.8,0.,4.8,0.,4.8
1979-08-07 21:35:43.160 ,0,0,1.,4.8,0.,4.8,0.,4.8,0.,4.8
1979-08-07 21:35:47.960 ,0,0,1.,4.8,0.,4.8,0.,4.8,0.,4.8
1979-08-07 21:35:52.760 ,0,0,3.,4.8,0.,4.8,0.,4.8,0.,4.8
1979-08-07 21:35:57.560 ,0,0,1.,4.8,1.,4.8,0.,4.8,0.,4.8
1979-08-07 21:36:02.360 ,0,0,1.,4.8,1.,4.8,0.,4.8,0.,4.8
1979-08-07 21:36:07.160 ,0,0,1.,4.8,0.,4.8,0.,4.8,0.,4.8
1979-08-07 21:36:11.960 ,0,0,3.,4.8,0.,4.8,0.,4.8,0.,4.8
1979-08-07 21:36:16.760 ,0,0,2.,4.8,0.,4.8,0.,4.8,0.,4.8
1979-08-07 21:36:21.560 ,0,0,2.,4.8,0.,4.8,0.,4.8,0.,4.8
1979-08-07 21:36:26.360 ,0,0,1.,4.8,0.,4.8,0.,4.8,0.,4.8
1979-08-07 21:36:31.160 ,0,0,2.,4.8,1.,4.8,0.,4.8,0.,4.8
1979-08-07 21:36:35.960 ,0,0,1.,4.8,0.,4.8,0.,4.8,0.,4.8
1979-08-07 21:36:40.760 ,0,0,2.,4.8,0.,4.8,0.,4.8,0.,4.8
1979-08-07 21:36:45.560 ,1,0,0.,4.8,1.,4.8,0.,4.8,0.,4.8
1979-08-07 21:36:50.360 ,1,0,0.,4.8,1.,4.8,1.,4.8,0.,4.8
1979-08-07 21:36:55.160 ,1,0,1.,4.8,0.,4.8,1.,4.8,0.,4.8
1979-08-07 21:36:59.960 ,1,0,3.,4.8,0.,4.8,2.,4.8,0.,4.8
1979-08-07 21:37:04.760 ,1,0,0.,4.8,0.,4.8,0.,4.8,0.,4.8
1979-08-07 21:37:09.560 ,1,0,3.,4.8,0.,4.8,0.,4.8,0.,4.8
1979-08-07 21:37:14.360 ,1,0,3.,4.8,0.,4.8,0.,4.8,0.,4.8
1979-08-07 21:37:19.160 ,1,0,2.,4.8,0.,4.8,0.,4.8,0.,4.8
1979-08-07 21:37:23.960 ,1,0,3.,4.8,0.,4.8,1.,4.8,0.,4.8
1979-08-07 21:37:28.760 ,1,0,1.,4.8,0.,4.8,1.,4.8,0.,4.8
1979-08-07 21:37:33.560 ,2,0,0.,4.8,0.,4.8,0.,4.8,0.,4.8
1979-08-07 21:37:38.360 ,2,0,0.,4.8,0.,4.8,1.,4.8,0.,4.8
1979-08-07 21:37:43.160 ,2,0,2.,4.8,2.,4.8,0.,4.8,0.,4.8
1979-08-07 21:37:47.960 ,2,0,1.,4.8,1.,4.8,0.,4.8,0.,4.8
1979-08-07 21:37:52.760 ,2,0,1.,4.8,1.,4.8,0.,4.8,0.,4.8
1979-08-07 21:37:57.560 ,2,0,1.,4.8,0.,4.8,0.,4.8,0.,4.8
1979-08-07 21:38:02.360 ,2,0,4.,4.8,0.,4.8,0.,4.8,0.,4.8
1979-08-07 21:38:07.160 ,2,0,2.,4.8,1.,4.8,0.,4.8,0.,4.8
1979-08-07 21:38:11.960 ,2,0,0.,4.8,0.,4.8,1.,4.8,0.,4.8
1979-08-07 21:38:16.760 ,2,0,1.,4.8,0.,4.8,0.,4.8,0.,4.8
1979-08-07 21:38:21.560 ,3,0,2.,4.8,0.,4.8,0.,4.8,0.,4.8
1979-08-07 21:38:26.360 ,3,0,2.,4.8,0.,4.8,0.,4.8,0.,4.8
1979-08-07 21:38:31.160 ,3,0,1.,4.8,0.,4.8,1.,4.8,0.,4.8
1979-08-07 21:38:35.960 ,3,0,1.,4.8,0.,4.8,0.,4.8,0.,4.8
1979-08-07 21:38:40.760 ,3,0,0.,4.8,0.,4.8,0.,4.8,0.,4.8
1979-08-07 21:38:45.560 ,3,0,0.,4.8,0.,4.8,1.,4.8,0.,4.8
1979-08-07 21:38:50.360 ,3,0,2.,4.8,0.,4.8,1.,4.8,0.,4.8
1979-08-07 21:38:55.160 ,3,0,0.,4.8,0.,4.8,1.,4.8,0.,4.8
1979-08-07 21:38:59.960 ,3,0,0.,4.8,1.,4.8,0.,4.8,0.,4.8
1979-08-07 21:39:04.760 ,3,0,0.,4.8,0.,4.8,1.,4.8,0.,4.8
1979-08-07 21:39:09.560 ,4,0,3.,4.8,1.,4.8,0.,4.8,0.,4.8
1979-08-07 21:39:14.360 ,4,0,4.,4.8,0.,4.8,0.,4.8,0.,4.8
1979-08-07 21:39:19.160 ,4,0,1.,4.8,1.,4.8,1.,4.8,0.,4.8
1979-08-07 21:39:23.960 ,4,0,3.,4.8,1.,4.8,0.,4.8,0.,4.8
1979-08-07 21:39:28.760 ,4,0,0.,4.8,0.,4.8,0.,4.8,0.,4.8
1979-08-07 21:39:33.560 ,4,0,0.,4.8,0.,4.8,0.,4.8,0.,4.8
1979-08-07 21:39:38.360 ,4,0,3.,4.8,0.,4.8,0.,4.8,0.,4.8
1979-08-07 21:39:43.160 ,4,0,1.,4.8,1.,4.8,0.,4.8,0.,4.8
1979-08-07 21:39:47.960 ,4,0,0.,4.8,1.,4.8,1.,4.8,1.,4.8
1979-08-07 21:39:52.760 ,4,0,3.,4.8,0.,4.8,1.,4.8,0.,4.8
1979-08-07 21:39:57.560 ,5,0,4.,4.8,0.,4.8,0.,4.8,0.,4.8
1979-08-07 21:40:02.360 ,5,0,2.,4.8,0.,4.8,0.,4.8,0.,4.8
1979-08-07 21:40:07.160 ,5,0,1.,4.8,1.,4.8,0.,4.8,0.,4.8
1979-08-07 21:40:11.960 ,5,0,2.,4.8,1.,4.8,1.,4.8,0.,4.8
1979-08-07 21:40:16.760 ,5,0,2.,4.8,0.,4.8,0.,4.8,0.,4.8
1979-08-07 21:40:21.560 ,5,0,1.,4.8,1.,4.8,1.,4.8,0.,4.8
1979-08-07 21:40:26.360 ,5,0,3.,4.8,0.,4.8,0.,4.8,0.,4.8
1979-08-07 21:40:31.160 ,5,0,1.,4.8,1.,4.8,0.,4.8,0.,4.8
1979-08-07 21:40:35.960 ,5,0,2.,4.8,1.,4.8,0.,4.8,0.,4.8
1979-08-07 21:40:40.760 ,5,0,2.,4.8,1.,4.8,1.,4.8,0.,4.8
1979-08-07 21:40:45.560 ,6,0,1.,4.8,1.,4.8,2.,4.8,0.,4.8
1979-08-07 21:40:50.360 ,6,0,1.,4.8,0.,4.8,2.,4.8,0.,4.8
1979-08-07 21:40:55.160 ,6,0,3.,4.8,0.,4.8,0.,4.8,0.,4.8
1979-08-07 21:40:59.960 ,6,0,2.,4.8,1.,4.8,0.,4.8,0.,4.8
1979-08-07 21:41:04.760 ,6,0,0.,4.8,0.,4.8,0.,4.8,0.,4.8
1979-08-07 21:41:09.560 ,6,0,0.,4.8,1.,4.8,0.,4.8,0.,4.8
1979-08-07 21:41:14.360 ,6,0,1.,4.8,1.,4.8,0.,4.8,0.,4.8
1979-08-07 21:41:19.160 ,6,0,4.,4.8,3.,4.8,1.,4.8,0.,4.8
1979-08-07 21:41:23.960 ,6,0,2.,4.8,0.,4.8,0.,4.8,0.,4.8
1979-08-07 21:41:28.760 ,6,0,2.,4.8,2.,4.8,0.,4.8,0.,4.8
1979-08-07 21:41:33.560 ,7,0,1.,4.8,0.,4.8,0.,4.8,0.,4.8
1979-08-07 21:41:38.360 ,7,0,3.,4.8,0.,4.8,1.,4.8,0.,4.8
1979-08-07 21:41:43.160 ,7,0,2.,4.8,2.,4.8,0.,4.8,0.,4.8
1979-08-07 21:41:47.960 ,7,0,1.,4.8,0.,4.8,0.,4.8,0.,4.8
1979-08-07 21:41:52.760 ,7,0,0.,4.8,0.,4.8,0.,4.8,0.,4.8
1979-08-07 21:41:57.560 ,7,0,0.,4.8,0.,4.8,1.,4.8,0.,4.8
1979-08-07 21:42:02.360 ,7,0,2.,4.8,1.,4.8,0.,4.8,0.,4.8
1979-08-07 21:42:07.160 ,7,0,1.,4.8,0.,4.8,0.,4.8,0.,4.8
1979-08-07 21:42:11.960 ,7,0,4.,4.8,1.,4.8,0.,4.8,0.,4.8
1979-08-07 21:42:16.760 ,7,0,2.,4.8,0.,4.8,1.,4.8,0.,4.8
1979-08-07 21:42:21.560 ,7,0,0.,4.8,1.,4.8,0.,4.8,0.,4.8
1979-08-07 21:42:26.360 ,7,0,1.,4.8,0.,4.8,1.,4.8,0.,4.8
1979-08-07 21:42:31.160 ,7,0,3.,4.8,1.,4.8,2.,4.8,0.,4.8
1979-08-07 21:42:35.960 ,7,0,1.,4.8,0.,4.8,0.,4.8,0.,4.8
1979-08-07 21:42:40.760 ,7,0,0.,4.8,0.,4.8,0.,4.8,0.,4.8
1979-08-07 21:42:45.560 ,7,0,1.,4.8,0.,4.8,1.,4.8,0.,4.8
1979-08-07 21:42:50.360 ,7,0,1.,4.8,0.,4.8,0.,4.8,0.,4.8
1979-08-07 21:42:55.160 ,7,0,0.,4.8,0.,4.8,1.,4.8,0.,4.8
1979-08-07 21:42:59.960 ,7,0,1.,4.8,1.,4.8,0.,4.8,0.,4.8